This demonstration page uses our WeatherBlox Daily Observations layout. Learn more.

Left ArrowRight Arrow

Hourly Observations for April 3, 2021

Temp ( °F °C ) Dew Point ( °F °C ) Humidity (%) Winds ( mph kmh ) Pressure ( in mb ) Visibility ( mi km ) Precip ( " mm )
12:53 am 00:53 Clear 53 11.7 40 4.4 61 61 NW 6 9 29.99 1016 10 16 0.00 0.00
1:53 am 01:53 Clear 49 9.4 40 4.4 71 71 N 3 6 30.00 1016 10 16 0.00 0.00
2:53 am 02:53 Clear 47 8.3 39 3.9 74 74 Calm 30.02 1017 10 16 0.00 0.00
3:53 am 03:53 Clear 45 7.2 38 3.3 77 77 Calm 30.02 1017 10 16 0.00 0.00
4:53 am 04:53 Clear 44 6.7 38 3.3 79 79 Calm 30.03 1017 10 16 0.00 0.00
5:53 am 05:53 Clear 43 6 N/A N/A Calm 30.04 1017 10 16 0.00 0.00
6:53 am 06:53 Sunny 43 6 N/A N/A N 5 7 30.05 1018 10 16 0.00 0.00
7:53 am 07:53 Sunny 45 7.2 40 4.4 83 83 Calm 30.08 1019 10 16 0.00 0.00
8:53 am 08:53 Sunny 52 11.1 41 5 66 66 Calm 30.08 1019 10 16 0.00 0.00
9:53 am 09:53 Sunny 59 15 38 3.3 46 46 Calm 30.09 1019 10 16 0.00 0.00
10:53 am 10:53 Sunny 64 17.8 39 3.9 40 40 Calm 30.09 1019 10 16 0.00 0.00
11:53 am 11:53 Sunny 67 19.4 35 1.7 31 31 Calm 30.08 1019 10 16 0.00 0.00
12:53 pm 12:53 Sunny 70 21.1 37 2.8 30 30 VRB 3 6 30.06 1018 10 16 0.00 0.00
1:53 pm 13:53 Sunny 73 22.8 34 1.1 24 24 VRB 3 6 30.05 1018 10 16 0.00 0.00
2:53 pm 14:53 Sunny 74 23.3 34 1.1 23 23 S 5 7 30.04 1017 10 16 0.00 0.00
3:53 pm 15:53 Sunny 75 23.9 35 1.7 23 23 SSW 8 13 30.02 1017 10 16 0.00 0.00
4:53 pm 16:53 Sunny 75 23.9 35 1.7 23 23 VRB 6 9 30.01 1016 10 16 0.00 0.00
5:53 pm 17:53 Sunny 73 22.8 37 2.8 27 27 SSW 7 11 30.01 1016 10 16 0.00 0.00
6:53 pm 18:53 Sunny 71 21.7 37 2.8 29 29 SSW 7 11 30.01 1016 10 16 0.00 0.00
7:53 pm 19:53 Clear 68 20 39 3.9 35 35 S 3 6 30.03 1017 10 16 0.00 0.00
8:53 pm 20:53 Clear 62 16.7 42 5.6 48 48 Calm 30.05 1018 10 16 0.00 0.00
9:53 pm 21:53 Clear 60 15.6 43 6.1 53 53 Calm 30.07 1018 10 16 0.00 0.00
10:53 pm 22:53 Clear 56 13.3 43 6.1 62 62 Calm 30.09 1019 10 16 0.00 0.00
11:53 pm 23:53 Clear 55 12.8 43 6.1 64 64 Calm 30.11 1020 10 16 0.00 0.00

Powered by AerisWeather